SL-3 DEB

Satellite information

Favourite Embed

Satellite Type and Status

DEBRISIN ORBIT

Key statistics

Satellite SL-3 DEB at a glance.

Uptime

15388

Days in orbit

Revolutions

≈ 14.3

Per day

Orbit

LEO

Low Earth Orbit

Inclination

81.2

Latest

Satellite identification and parameters

Extended collection of information and parameters for SL-3 DEB.

Object identification

Identified? True

Debris? True

Object name: SL-3 DEB

International designator: 1983-109C

Object number (NORAD): 14454

Object ID (CCSDS): 14454

Country: COMMONWEALTH OF INDEPENDENT STATES (CIS)

Current information (Y/N): Y

RCS size: SMALL

Orbital parameters

Period: 100.957 minutes

Inclination: 81.1615 deg

SMA: 7182.083 km

Apoapsis: 872.414 km

Periapsis: 735.481 km

RAAN: 195.5666 deg

Eccentricy: 0.0095329

Argument of periapsis: 48.7309 deg

Mean anomaly: 343.8247 deg

Mean motion: 14.26353514 rev/day

Mean motion (dot): 0.00000165 rev/day2

B* drag term: 0.000060324314 1/REarth

Two-line elements (TLE)

Creation date: Dec. 11, 2025, 7:14 p.m.

Reference frame: TEME

Reference center: EARTH

Epoch: Dec. 11, 2025, 1:41 p.m. UTC

TLE line 0: 0 SL-3 DEB

TLE line 1: 1 14454U 83109C 25345.57049856 .00000165 00000-0 60324-4 0 9993

TLE line 2: 2 14454 81.1615 195.5666 0095329 48.7309 343.8247 14.26353514190228

Live tracking on map

Real-time ground track for satellite SL-3 DEB.

In-orbit conjunctions

A list of the most updated potential collisions computed for object SL-3 DEB.

Target Orbit TCA Probability of collision Miss distance Type
FENGYUN 1C DEB SSO 2025-11-14 03:37:55 0.0005944026 51.0 (m) DEBRIS
FENGYUN 1C DEB SSO 2024-12-12 19:27:11 0.0001817383 158.0 (m) DEBRIS
NOAA 17 DEB SSO 2024-07-25 12:20:31 0.0001270456 60.0 (m) DEBRIS

Associated space launch

Second generation soviet meteorological satellite

SL-3 DEB was lifted into orbit during the mission ‘Vostok 8A92M | Meteor-2 10’, on board a Vostok 8A92M space rocket.

The launch took place on Oct. 28, 1983, 9 a.m. from 16/2.

For more information about the launch, click the button.

Launch to space Vostok 8A92M | Meteor-2 10
Vostok 8A92M | Meteor-2 10

Agency: N/A

Status: Launch Successful

Launch date: Oct. 28, 1983, 9 a.m. UTC

Rocket: Vostok 8A92M

Launch pad: 16/2

Location: Plesetsk Cosmodrome, Russian Federation

...

Latest news about this satellite

There are no fresh news available about this satellite. Check back as we update our databases every day.


Newsletter sign-up

Weekly statistics, charts and insights to help you stay on top of the space industry.